INTERCOSMOS 24

Last updated on Mon Sep 21 2026 00:02:08 GMT+0000 (Coordinated Universal Time)

1 20261U 89080A 26263.48124285 .00000456 00000+0 13085-3 0 9993 2 20261 82.6102 337.6177 1186958 200.6309 154.2765 12.59735744691322
UTC large
Height (km)
Speed (km/s)
/
Latitude / Longitude
Inclination (degrees)
Orbital Period (minutes)
Azimuth
Elevation
Range (km)
Doppler Factor

Next 0 passes for location: London (51.5072 / 0.1276)

No passes found over London.
INTERCOSMOS 24